Location: Cujisal
(10.0911°N, 67.5828°W)
Time: 07:44:56
(UTC+00:00)

Daily predictions for brighter satellites

Satellite Brightness Start Highest point End
(mag) Time Altitude Azimuth Time Altitude Azimuth Time Altitude Azimuth
ATLAS 2AS CENTAUR RB 4.2 20:32:28 10° WSW 20:37:46 80° SSE 21:22:08 10° E
ATLAS 2AS CENTAUR RB 4.2 20:32:29 10° WSW 20:37:47 80° SSE 21:22:08 10° E
ATLAS 2AS CENTAUR RB 4.2 20:32:28 10° WSW 20:37:47 80° SSE 21:22:07 10° E
ATLAS 2AS CENTAUR RB 4.2 20:32:28 10° WSW 20:37:47 80° SSE 21:22:08 10° E
Ariane H10+ 2.5 22:58:26 10° W 23:01:02 63° S 23:07:23 10° E
Cosmos 1844 3.8 22:58:34 10° N 23:04:17 66° ENE 23:09:55 10° SSE
Helios 1B rocket 3.1 23:00:35 10° S 23:04:25 55° WSW 23:08:15 10° NNW
Cosmos 1238 Rocket 4.4 23:00:45 10° SE 23:04:26 24° E 23:08:31 10° NE
CZ-2C R/B 4.4 23:03:09 10° SSW 23:06:33 35° W 23:09:56 10° NW
Centaur D AC-29 1.7 23:03:21 10° WSW 23:07:41 59° NNW 23:11:34 10° ENE
Okean 1-7 Rocket 3.7 23:03:58 10° N 23:08:17 53° E 23:12:35 10° SSE
Cosmos 1812 3.8 23:06:14 10° SE 23:09:01 22° E 23:11:48 10° NE
Centaur D-1AR AC-37 4.1 23:05:20 10° WNW 23:09:14 86° NNE 23:13:50 10° ESE
SL-08 R/B 3.8 23:04:46 10° N 23:09:38 70° WNW 23:14:27 10° SSW
Cosmos 2237 Rocket 2.2 23:04:09 10° S 23:09:43 60° ESE 23:15:17 10° NNE
Helios 1A 4.3 23:07:29 10° N 23:11:21 45° WNW 23:15:15 10° SSW
Cosmos 2100 Rocket 4.0 23:06:07 10° N 23:12:12 66° E 23:18:16 10° SSE
Cosmos 1626 Rocket 4.1 23:09:20 10° NNW 23:13:40 64° W 23:17:58 10° S
Timation 2 Rocket 4.2 23:09:58 10° N 23:15:45 48° ENE 23:21:27 10° SE
SL-8 R/B 3.7 23:12:04 10° SSW 23:16:42 57° SE 23:21:21 10° NE
Cosmos 1844 Rocket 2.9 23:11:16 10° NNW 23:16:48 76° WSW 23:22:21 10° S
IGS 5A 3.5 23:13:36 10° S 23:17:40 85° W 23:21:43 10° NNW
Cosmos 1980 3.7 23:12:14 10° SSW 23:17:51 81° ESE 23:23:29 10° NNE
Milstar 3 3.1 23:13:40 10° WNW 23:20:20 83° SSW 23:29:15 12° ESE
GPS 2-15 Rocket1 4.1 23:20:30 10° W 23:24:59 38° SSW 23:28:58 12° SE
Cosmos 2173 Rocket 4.0 23:21:39 10° N 23:27:46 89° E 23:33:51 10° S
Ariane 3 Deb 3.3 23:25:38 10° WSW 23:29:52 31° S 23:31:46 17° SE
Cosmos 1666 3.5 23:28:36 10° NNE 23:31:29 25° E 23:33:06 18° SE
Cosmos 2150 Rocket 4.4 23:26:42 10° N 23:31:49 45° ENE 23:36:45 11° SSE
YAOGAN 3 4.5 23:30:39 10° SSE 23:34:56 80° ENE 23:39:12 10° N
Cosmos 1725 Rocket 4.1 23:29:55 10° N 23:36:05 57° E 23:42:15 10° SSE
ADEOS Rocket 3.2 23:33:23 10° S 23:39:00 71° WSW 23:45:08 10° NNW
CZ-4B R/B 3.2 23:35:35 10° SSE 23:40:19 83° ENE 23:45:03 10° N
Cosmos 1862 3.1 23:36:37 10° N 23:40:24 90° ESE 23:44:11 10° S
Cosmos 1802 Rocket 4.0 23:34:16 10° N 23:40:40 81° E 23:47:00 10° S
Intelsat 5-3 Rocket 2.0 23:39:11 10° WNW 23:41:52 79° NNE 23:44:33 22° ESE
GEOS 3 Rocket 4.2 23:37:38 10° ENE 23:42:02 30° ESE 23:46:24 10° S
Resurs 1-3 4.4 23:40:20 20° SE 23:42:30 31° ENE 23:46:20 10° NNE
Landsat 7 3.7 23:38:01 10° SSE 23:42:42 76° ENE 23:47:23 10° N
YAOGAN 1 2.7 23:40:40 10° S 23:44:57 77° W 23:49:13 10° NNW
Cosmos 1867 3.6 23:40:40 10° NNW 23:46:06 85° WSW 23:51:01 13° SSE
OAO 1 4.4 23:41:18 10° SW 23:46:48 83° SE 23:52:17 10° NE
Cosmos 2058 Rocket 3.1 23:43:07 10° S 23:47:28 84° W 23:51:51 10° N
Cosmos 1500 2.7 23:45:21 10° N 23:48:47 82° E 23:51:24 16° S
Cosmos 1953 Rocket 4.2 23:46:34 10° NNE 23:50:36 35° E 23:52:01 28° ESE
CZ-4B R/B 4.3 23:52:50 23° E 23:53:53 24° ENE 23:58:06 10° NNE
